Home > Weather > St. George > Past weeks

Flag for USA Weather for the Past 2 Weeks in St. George, Utah, USA

Now
55 °F

Passing clouds.


Feels Like: 55 °F
Forecast: 47 / 69 °F
Wind: 5 mph from Northwest

Location: Saint George

Current Time: May 1, 2016 at 12:09:03 AM

Latest Report: Apr 30, 2016 at 11:35 PM


Visibility: 10 mi

Pressure: 29.87 "Hg (27.01 "Hg at 842m altitude)

Humidity: 59%

Dew Point: 41 °F

Location of St. GeorgeLocation

Historic Weather in St. George — Graph

°F

St. George Temperature Yesterday

Maximum temperature yesterday: 64 °F (at 2:35 PM)
Minimum temperature yesterday: 48 °F (at 2:35 AM)
Average temperature yesterday: 55 °F

High & Low Weather Summary for the Past Weeks

 TemperatureHumidityPressure
High88 °F (Apr 22, 2:55 PM)87% (Apr 29, 3:35 AM)30.24 "Hg (Apr 29, 3:35 AM)
Low45 °F (Apr 18, 7:15 AM)10% (Apr 20, 7:35 PM)29.59 "Hg (Apr 25, 4:55 AM)
Average61 °F36%29.92 "Hg
* Reported Apr 15 10:35 PM — Apr 30 10:35 PM, St. George, Weather by CustomWeather, © 2016

Note: Actual official high and low records may vary slightly from our data, if they occured in-between our weather recording intervals... More about our weather records

Advertising

St. George Weather History for the Previous 24 Hours

Scroll right to see more
 ConditionsComfort  
Time TempWeatherWind HumidityBarometerVisibility
10:35 PM
Sat, Apr 30
57 °FPassing clouds.13 mph51%29.87 "Hg10 mi
9:55 PM57 °FPassing clouds.16 mph55%29.86 "Hg10 mi
9:35 PM55 °FPassing clouds.13 mph63%29.86 "Hg10 mi
8:35 PM55 °FOvercast.15 mph63%29.85 "Hg10 mi
8:15 PM57 °FOvercast.21 mph59%29.85 "Hg10 mi
7:55 PM57 °FMostly cloudy.20 mph59%29.85 "Hg10 mi
7:35 PM57 °FScattered clouds.23 mph59%29.84 "Hg10 mi
7:15 PM57 °FPassing clouds.14 mph63%29.82 "Hg10 mi
6:55 PM59 °FBroken clouds.9 mph59%29.82 "Hg10 mi
6:35 PM57 °FThunderstorms. Partly sunny.5 mph63%29.82 "Hg10 mi
6:15 PM55 °FThunderstorms. Partly sunny.3 mph63%29.81 "Hg10 mi
5:55 PM57 °FOvercast.12 mph59%29.80 "Hg10 mi
5:35 PM63 °FBroken clouds.10 mph52%29.79 "Hg10 mi
5:15 PM63 °FPartly sunny.8 mph49%29.79 "Hg10 mi
4:55 PM63 °FScattered clouds.10 mph52%29.79 "Hg10 mi
4:35 PM63 °FPassing clouds.10 mph52%29.79 "Hg10 mi
4:15 PM63 °FBroken clouds.6 mph52%29.79 "Hg10 mi
3:55 PM63 °FMostly cloudy.5 mph49%29.79 "Hg10 mi
3:35 PM63 °FScattered clouds.6 mph52%29.80 "Hg10 mi
2:55 PM63 °FScattered clouds.9 mph49%29.81 "Hg10 mi
2:35 PM64 °FPassing clouds.9 mph49%29.80 "Hg10 mi
2:15 PM63 °FSunny.14 mph52%29.81 "Hg10 mi
1:55 PM63 °FSunny.15 mph52%29.81 "Hg10 mi
1:35 PM61 °FSunny.17 mph55%29.82 "Hg10 mi
1:15 PM61 °FPassing clouds.15 mph55%29.82 "Hg10 mi
12:55 PM59 °FScattered clouds.15 mph59%29.83 "Hg10 mi
12:35 PM57 °FPartly sunny.14 mph59%29.84 "Hg10 mi
12:15 PM55 °FMostly cloudy.10 mph63%29.84 "Hg10 mi
11:55 AM57 °FMostly cloudy.8 mph59%29.84 "Hg10 mi
11:35 AM57 °FOvercast.8 mph59%29.85 "Hg10 mi
11:15 AM55 °FOvercast.7 mph63%29.84 "Hg10 mi
10:55 AM54 °FOvercast.No wind67%29.84 "Hg10 mi
10:35 AM52 °FOvercast.No wind72%29.84 "Hg10 mi
10:15 AM52 °FOvercast.5 mph77%29.84 "Hg10 mi
9:55 AM52 °FOvercast.6 mph77%29.84 "Hg10 mi
9:35 AM50 °FOvercast.6 mph82%29.84 "Hg10 mi
9:15 AM50 °FMostly cloudy.5 mph82%29.83 "Hg10 mi
8:55 AM50 °FOvercast.3 mph82%29.83 "Hg10 mi
8:35 AM50 °FOvercast.No wind76%29.83 "Hg10 mi
8:15 AM50 °FMostly cloudy.No wind76%29.83 "Hg10 mi
7:55 AM50 °FMostly cloudy.No wind76%29.82 "Hg10 mi
7:35 AM50 °FMostly cloudy.3 mph76%29.82 "Hg10 mi
7:15 AM50 °FOvercast.No wind76%29.81 "Hg10 mi
6:55 AM48 °FOvercast.No wind82%29.81 "Hg10 mi
6:35 AM48 °FPartly cloudy.5 mph82%29.81 "Hg10 mi
6:15 AM48 °FPassing clouds.5 mph82%29.81 "Hg10 mi
5:55 AM48 °FOvercast.3 mph82%29.81 "Hg9 mi
5:35 AM48 °FMostly cloudy.3 mph82%29.82 "Hg10 mi
5:15 AM48 °FMostly cloudy.6 mph82%29.82 "Hg10 mi
4:55 AM48 °FOvercast.5 mph82%29.83 "Hg10 mi
4:35 AM48 °FOvercast.5 mph82%29.83 "Hg10 mi
3:55 AM48 °FMostly cloudy.7 mph87%29.85 "Hg10 mi
3:35 AM48 °FOvercast.No wind87%29.85 "Hg10 mi
3:15 AM48 °FOvercast.No wind87%29.85 "Hg10 mi
2:35 AM48 °FMostly cloudy.3 mph87%29.87 "Hg8 mi
2:15 AM50 °FMostly cloudy.3 mph82%29.88 "Hg10 mi
1:55 AM50 °FMostly cloudy.9 mph82%29.89 "Hg10 mi
1:15 AM52 °FMostly cloudy.13 mph77%29.87 "Hg9 mi
12:35 AM52 °FMostly cloudy.5 mph77%29.84 "Hg10 mi
Weather by CustomWeather, © 2016

See weather overviewHow to use our weather pages